Regional Weather Roundup
Issued by NWS Kansas City/Pleasant Hill, MO

Home | Current Version | Previous Version | Graphics & Text | Print | Product List | Glossary Off
Versions: 1 2 3 4 5 6 7 8 9 10 11 12 13 14 15 16 17 18 19 20 21 22 23 24 25 26 27 28 29 30 31 32 33 34 35 36 37 38 39 40 41 42 43 44 45 46 47 48 49 50

000
ASUS43 KEAX 221810
RWREAX

WEATHER ROUNDUP FOR EASTERN KANSAS AND NORTHWEST MISSOURI
NATIONAL WEATHER SERVICE KANSAS CITY/PLEASANT HILL MO
1200 PM CST WED FEB 22 2017

KSZ040-057-103>105-MOZ028-029-037-043-221900-
...KANSAS CITY METROPOLITAN AREA...

CITY           SKY/WX    TMP DP  RH WIND       PRES   REMARKS
K.C. INTL      CLOUDY    67  38  34 SW14      29.71F
6HR MIN TEMP:  48; 6HR MAX TEMP:  68;

K.C. DOWNTOWN  PTSUNNY   72  42  34 S16       29.69F
6HR MIN TEMP:  44; 6HR MAX TEMP:  72;

LEES SUMMIT    MOSUNNY   70  48  45 S17       29.72F
6HR MIN TEMP:  50; 6HR MAX TEMP:  70;

OLATHE - IXD   MOSUNNY   72  38  29 S21G31    29.72F
6HR MIN TEMP:  39; 6HR MAX TEMP:  73;

OLATHE - OJC   MOSUNNY   71  41  33 S16G23    29.72F
6HR MIN TEMP:  42; 6HR MAX TEMP:  72;

LAWRENCE       CLOUDY    72  35  25 SW14G24   29.72F

$$

MOZ001>008-011>017-020>025-030>033-038>040-044>046-053-054-221900-
...NORTHERN AND CENTRAL MISSOURI...

CITY           SKY/WX    TMP DP  RH WIND       PRES   REMARKS
ST. JOSEPH     SUNNY     71  36  27 SW22      29.68F
6HR MIN TEMP:  42; 6HR MAX TEMP:  73;

WARRENSBURG    PTSUNNY   66  50  55 S15G23    29.75F
WHITEMAN AFB   PTSUNNY   67  56  66 SW20      29.75F
6HR MIN TEMP:  47; 6HR MAX TEMP:  68;

CLINTON        SUNNY     66  54  63 SW13G20   29.79F
SEDALIA        MOSUNNY   66  55  67 S13G23    29.79F
6HR MIN TEMP:  53; 6HR MAX TEMP:  66;

WARSAW         NOT AVBL
CHILLICOTHE      N/A     71  45  39 S18       29.70F
6HR MIN TEMP:  45; 6HR MAX TEMP:  71;

KIRKSVILLE     SUNNY    N/A N/A N/A S17G23    29.72F
6HR MIN TEMP:  49; 6HR MAX TEMP:  66;


$$

MOZ041-047>049-056>058-063>065-088>090-097-221900-
...EASTERN AND SOUTHERN MISSOURI...

CITY           SKY/WX    TMP DP  RH WIND       PRES   REMARKS
ST. LOUIS INTL CLOUDY    60  55  83 W6        29.82F
6HR MIN TEMP:  50; 6HR MAX TEMP:  60;

SPIRIT OF STL  CLOUDY    59  56  89 SW6       29.81F
COLUMBIA       CLOUDY    58  57  97 S13       29.81F
JEFFERSON CITY CLOUDY    58  55  90 S7        29.82S
ROLLA          CLOUDY    58  56  93 S10       29.81F
OSAGE BEACH    CLOUDY    59  55  87 S9        29.83F
SPRINGFIELD    CLOUDY    60  56  86 S10       29.84F
BRANSON        PTSUNNY   61  55  82 CALM      29.86F
JOPLIN         SUNNY     71  54  54 S13       29.81F
WEST PLAINS    MOSUNNY   65  56  72 S10       29.86F

$$

IAZ060-094-KSZ022-034>040-054-083-096-NEZ052-066-093-221900-
...KANSAS...SOUTHEAST NEBRASKA AND IOWA...

CITY           SKY/WX    TMP DP  RH WIND       PRES   REMARKS
TOPEKA         CLOUDY    72  37  28 SW9G18    29.70F
6HR MIN TEMP:  46; 6HR MAX TEMP:  72;

MANHATTAN      MOSUNNY   64  38  38 SW10      29.71F
EMPORIA        SUNNY     75  35  23 W18G26    29.73R
CHANUTE        SUNNY     73  40  30 S23G30    29.76F
WICHITA        MOSUNNY   68  43  40 SW12      29.76F
OMAHA          SUNNY     67  36  31 NW8       29.65S
LINCOLN        SUNNY     72  36  26 NW18      29.68S
FALLS CITY     SUNNY     70  34  26 SW10      29.67F
LAMONI         SUNNY     71  36  27 SW17G29   29.63F
DES MOINES     MOSUNNY   71  33  24 W25G31    29.61R

$$




USA.gov is the U.S. government's official web portal to all federal, state and local government web resources and services.